Вернуться в каталог

CZ-4B R/B

АктивенSSO
NORAD 37181·ROCKET BODY·🇨🇳 China

Запущен Oct 6, 2010 с Taiyuan Satellite Launch Center

Loading…

Ближайшие Пролёты (ближайшие 24 часа)

TLE

СвежийSource: Space-Track

Эпоха: Sep 14, 2026, 09:08 UTC

1 37181U 10051C   26257.38076109  .00003457  00000-0  15745-3 0  9997
2 37181  97.7747 305.0738 0072027 162.0197 198.3609 15.19088635872181

Отслеживайте CZ-4B R/B в реальном времени с AllMySat

Download on the App Store